Location: ???????
(56.2167°N, 38.0500°E)
Time: 03:58:29
(UTC+00:00)

Cosmos 1975 - Pass Details

Date: 19 May 2025
Orbit: 487 x 506 km, 82.5° (Epoch: 15 June)

Event Time Altitude Azimuth Distance (km) Brightness Sun altitude
Rises 21:08:43 0° 339° (NNW) 2,579 7.8 -13.7°
Reaches altitude 10° 21:11:05 10° 326° (NW) 1,690 6.3 -13.8°
Maximum altitude 21:14:06 24° 271° (W) 1,044 4.3 -13.8°
Enters shadow 21:16:16 15° 225° (SW) 1,407 4.5 -13.8°
